Location: Baia Mare
(47.6567°N, 23.5850°E)
Time: 20:47:18
(UTC+03:00)

ISS - Pass Details

Date: 27 May 2018
Orbit: 402 x 406 km, 51.6° (Epoch: 20 June)

Event Time Altitude Azimuth Distance (km) Brightness Sun altitude
Rises 22:50:25 0° 278° (W) 2,322 0.7 -12.9°
Reaches altitude 10° 22:52:35 10° 287° (WNW) 1,461 -0.2 -13.1°
Maximum altitude 22:55:41 39° 358° (N) 624 -2.4 -13.5°
Drops below altitude 10° 22:58:47 10° 69° (ENE) 1,460 -1.2 -13.7°
Enters shadow 23:00:29 - 76° (ENE) 2,129 -0.4 -13.9°
